Abilene, TX

8:30 AM CDT on July 20, 2019 (GMT -0500)
Abilene Regional

Weather History for KABI - May, 2019

Change the Weather History Date:

Monday, May 20, 2019

  Actual Average Record
Temperature  
Mean Temperature 78 °F 74 °F  
Max Temperature 87 °F 86 °F 103 °F (1939)
Min Temperature 68 °F 63 °F 47 °F (1919)
Degree Days  
Heating Degree Days 0 0  
Month to date heating degree days 33 13  
Since 1 July heating degree days 2551 2555  
Cooling Degree Days 13 9  
Month to date cooling degree days 107 147  
Year to date cooling degree days 269 280  
Growing Degree Days 28 (Base 50)    
Moisture  
Dew Point 69 °F    
Average Humidity 74    
Maximum Humidity 93    
Minimum Humidity 55    
Precipitation  
Precipitation T in 0.11 in 1.92 in (1941)
Month to date precipitation 4.04 1.83  
Year to date precipitation 11.16 7.59  
Sea Level Pressure  
Sea Level Pressure 29.63 in    
Wind  
Wind Speed 22 mph (SSE)    
Max Wind Speed 33 mph    
Max Gust Speed 47 mph    
Visibility 7 miles    
Events      
T = Trace of Precipitation, MM = Missing Value Source: NWS Daily Summary

Daily Weather History Graph

Daily Weather History Graph

Search for Another Location

Airport or City:

Astronomy

May. 20, 2019 Rise Set
Actual Time 6:37 AM CDT 8:33 PM CDT
Civil Twilight 6:10 AM CDT 9:00 PM CDT
Nautical Twilight 5:37 AM CDT 9:33 PM CDT
Astronomical Twilight 5:01 AM CDT 10:09 PM CDT
Moon 10:33 PM CDT 8:07 AM CDT
Length of Visible Light 14h 50m
Length of Day
13h 55m
Waning Gibbous, 96% of the Moon is Illuminated
May 20
Waning Gibbous
May 26
Last Quarter
Jun 3
New
Jun 10
First Quarter
Jun 17
Full

Hourly Weather History & Observations

Time (CDT) Temp. Heat Index Dew Point Humidity Pressure Visibility Wind Dir Wind Speed Gust Speed Precip Events Conditions
12:52 AM 69.1 °F - 57.9 °F 68% 29.80 in 10.0 mi SE 11.5 mph - N/A   Clear
1:52 AM 70.0 °F - 61.0 °F 73% 29.77 in 10.0 mi SE 12.7 mph - N/A   Clear
2:52 AM 71.1 °F - 64.0 °F 78% 29.75 in 10.0 mi SE 13.8 mph - N/A   Partly Cloudy
3:26 AM 71.1 °F - 64.9 °F 81% 29.81 in 9.0 mi SSE 15.0 mph - N/A   Mostly Cloudy
3:49 AM 71.6 °F - 66.2 °F 83% 29.80 in 8.0 mi SSE 15.0 mph - N/A   Scattered Clouds
3:52 AM 71.1 °F - 66.9 °F 87% 29.72 in 8.0 mi SSE 16.1 mph - N/A   Partly Cloudy
4:52 AM 72.0 °F - 69.1 °F 91% 29.71 in 7.0 mi SSE 18.4 mph - N/A   Clear
5:52 AM 73.0 °F - 70.0 °F 90% 29.70 in 7.0 mi SSE 15.0 mph - N/A   Mostly Cloudy
6:52 AM 73.0 °F - 70.0 °F 90% 29.70 in 5.0 mi SE 18.4 mph 27.6 mph N/A   Clear
7:52 AM 73.9 °F - 70.0 °F 87% 29.70 in 5.0 mi SSE 19.6 mph 27.6 mph N/A   Overcast
8:30 AM 75.0 °F - 71.1 °F 87% 29.77 in 5.0 mi SSE 24.2 mph 32.2 mph N/A   Overcast
8:52 AM 75.9 °F - 71.1 °F 85% 29.70 in 5.0 mi SSE 20.7 mph 34.5 mph N/A   Haze
9:37 AM 78.1 °F - 71.1 °F 79% 29.76 in 5.0 mi SSE 21.9 mph 31.1 mph N/A   Haze
9:52 AM 79.0 °F - 72.0 °F 79% 29.68 in 5.0 mi SSE 21.9 mph 29.9 mph N/A   Haze
10:52 AM 80.1 °F 83.6 °F 71.1 °F 74% 29.65 in 4.0 mi South 27.6 mph 38.0 mph N/A   Haze
11:18 AM 84.0 °F 89.0 °F 71.1 °F 65% 29.72 in 5.0 mi South 27.6 mph 39.1 mph 0.00 in   Haze
11:52 AM 82.9 °F 87.5 °F 71.1 °F 67% 29.64 in 4.0 mi South 26.5 mph 40.3 mph 0.00 in   Haze
12:52 PM 86.0 °F 91.5 °F 71.1 °F 61% 29.62 in 4.0 mi South 29.9 mph 42.6 mph N/A   Haze
1:52 PM 87.1 °F 92.0 °F 70.0 °F 57% 29.58 in 5.0 mi SSE 31.1 mph 41.4 mph N/A   Haze
2:52 PM 86.0 °F 90.7 °F 70.0 °F 59% 29.56 in 5.0 mi South 23.0 mph 42.6 mph N/A   Haze
3:52 PM 84.9 °F 90.1 °F 71.1 °F 63% 29.53 in 6.0 mi South 24.2 mph 38.0 mph N/A   Haze
4:52 PM 84.9 °F 89.4 °F 70.0 °F 61% 29.48 in 6.0 mi South 27.6 mph 35.7 mph N/A   Haze
5:52 PM 84.9 °F 89.4 °F 70.0 °F 61% 29.45 in 7.0 mi SSE 26.5 mph 34.5 mph N/A   Scattered Clouds
6:52 PM 82.9 °F 87.0 °F 70.0 °F 65% 29.44 in 7.0 mi South 21.9 mph 31.1 mph N/A   Clear
7:52 PM 82.0 °F 85.9 °F 70.0 °F 67% 29.45 in 8.0 mi SSE 17.3 mph 27.6 mph N/A   Clear
8:52 PM 81.0 °F 84.4 °F 70.0 °F 69% 29.44 in 10.0 mi SSE 24.2 mph 31.1 mph N/A   Clear
9:52 PM 79.0 °F - 69.1 °F 72% 29.40 in 10.0 mi SSE 25.3 mph 31.1 mph N/A   Mostly Cloudy
10:52 PM 78.1 °F - 69.1 °F 74% 29.42 in 10.0 mi SSE 23.0 mph 32.2 mph N/A   Mostly Cloudy
11:52 PM 77.0 °F - 68.0 °F 74% 29.39 in 10.0 mi SSE 28.8 mph 36.8 mph N/A   Overcast